Weather

Currently

Time Weather Temperature Precipitation Clouds Wind Wind Bumps Pressure
07:55 3,1 °C 1,4 °C 0,0 mm/h 91 % 0,3 m/s 1009,4 mb

Current values recorded by the weather station installed in the spa park. Data updated at 7:55.


Forecast

Time Weather Temperature Precipitation Clouds Wind Wind Bumps Pressure
07:00 3 °C 0 mm/h 100 % 1 m/s 2,4 m/s 1012 hPa
08:00 3,3 °C 0,01 mm/h 100 % 1 m/s 2,2 m/s 1013 hPa
09:00 3,9 °C 0,01 mm/h 100 % 0,9 m/s 2,2 m/s 1013 hPa
10:00 4,8 °C 0,02 mm/h 100 % 1,3 m/s 3,4 m/s 1013 hPa
11:00 5,6 °C 0,01 mm/h 98 % 1,7 m/s 4,4 m/s 1013 hPa
12:00 6,2 °C 0 mm/h 95 % 1,6 m/s 4,4 m/s 1012 hPa
13:00 6,7 °C 0 mm/h 85 % 1,7 m/s 4,3 m/s 1012 hPa
14:00 6,9 °C 0 mm/h 75 % 1,9 m/s 4,8 m/s 1011 hPa
15:00 6,7 °C 0 mm/h 57 % 2 m/s 4,9 m/s 1011 hPa
16:00 5,9 °C 0 mm/h 32 % 1,5 m/s 4,8 m/s 1011 hPa
17:00 4,8 °C 0 mm/h 23 % 1,9 m/s 3,6 m/s 1011 hPa
18:00 4,1 °C 0 mm/h 23 % 2 m/s 4,2 m/s 1011 hPa
19:00 3,8 °C 0 mm/h 40 % 2 m/s 4,1 m/s 1011 hPa
20:00 3,6 °C 0 mm/h 38 % 2,1 m/s 4,1 m/s 1011 hPa
21:00 3,9 °C 0 mm/h 68 % 2,1 m/s 4,2 m/s 1010 hPa
22:00 4,2 °C 0 mm/h 33 % 2 m/s 4,2 m/s 1010 hPa
23:00 3,8 °C 0 mm/h 0 % 2,1 m/s 4,2 m/s 1010 hPa

Forecast data of ČHMÚ (Czech hydrometeorological institute) based on Aladin numerical model for Konstantinovy Lázně area. The data is updated daily at 6:00.

Time Weather Temperature Precipitation Clouds Wind Wind Bumps Pressure
00:00 3,5 °C 0 mm/h 0 % 2,1 m/s 4,3 m/s 1010 hPa
01:00 3,2 °C 0 mm/h 0 % 2,2 m/s 4,4 m/s 1009 hPa
02:00 3,1 °C 0 mm/h 0 % 2,3 m/s 4,7 m/s 1009 hPa
03:00 2,6 °C 0 mm/h 0 % 2,1 m/s 4,6 m/s 1009 hPa
04:00 2,3 °C 0 mm/h 3 % 2,1 m/s 4,3 m/s 1009 hPa
05:00 2 °C 0 mm/h 0 % 2,1 m/s 4 m/s 1009 hPa
06:00 1,9 °C 0 mm/h 3 % 2,2 m/s 4,2 m/s 1008 hPa
07:00 2 °C 0 mm/h 3 % 2,3 m/s 4,4 m/s 1008 hPa
08:00 2,2 °C 0 mm/h 10 % 2,3 m/s 4,7 m/s 1008 hPa
09:00 3,3 °C 0 mm/h 29 % 2,3 m/s 5 m/s 1008 hPa
10:00 5,2 °C 0 mm/h 28 % 2,2 m/s 5,3 m/s 1008 hPa
11:00 6,9 °C 0 mm/h 30 % 2,5 m/s 6,1 m/s 1008 hPa
12:00 7,9 °C 0 mm/h 22 % 2,7 m/s 6,7 m/s 1007 hPa
13:00 8,6 °C 0 mm/h 5 % 2,8 m/s 6,9 m/s 1007 hPa
14:00 9 °C 0 mm/h 0 % 2,8 m/s 7 m/s 1006 hPa
15:00 8,8 °C 0 mm/h 3 % 2,7 m/s 6,8 m/s 1006 hPa
16:00 7,8 °C 0 mm/h 16 % 2,6 m/s 6,4 m/s 1006 hPa
17:00 6,6 °C 0 mm/h 9 % 2,7 m/s 6 m/s 1006 hPa
18:00 5,8 °C 0 mm/h 7 % 2,6 m/s 6 m/s 1007 hPa
19:00 5,1 °C 0 mm/h 5 % 2,5 m/s 5,6 m/s 1007 hPa
20:00 4,7 °C 0 mm/h 2 % 2,6 m/s 5,7 m/s 1008 hPa
21:00 4,3 °C 0 mm/h 0 % 2,7 m/s 6 m/s 1008 hPa
22:00 4 °C 0 mm/h 0 % 2,7 m/s 6,1 m/s 1008 hPa
23:00 3,7 °C 0 mm/h 0 % 2,6 m/s 6 m/s 1009 hPa

Forecast data of ČHMÚ (Czech hydrometeorological institute) based on Aladin numerical model for Konstantinovy Lázně area. The data is updated daily at 6:00.

Time Weather Temperature Precipitation Clouds Wind Wind Bumps Pressure
00:00 3,3 °C 0 mm/h 0 % 2,5 m/s 5,9 m/s 1009 hPa
01:00 3,1 °C 0 mm/h 2 % 2,5 m/s 5,8 m/s 1009 hPa
02:00 2,9 °C 0 mm/h 3 % 2,4 m/s 5,7 m/s 1010 hPa
03:00 2,7 °C 0 mm/h 5 % 2,3 m/s 5,5 m/s 1010 hPa
04:00 2,6 °C 0 mm/h 13 % 2,3 m/s 5,3 m/s 1010 hPa
05:00 2,5 °C 0 mm/h 20 % 2,1 m/s 5,2 m/s 1010 hPa
06:00 2,4 °C 0 mm/h 36 % 2,2 m/s 4,8 m/s 1011 hPa
07:00 2,4 °C 0 mm/h 25 % 2,1 m/s 4,8 m/s 1011 hPa
08:00 2,4 °C 0 mm/h 34 % 2 m/s 4,6 m/s 1012 hPa
09:00 3,3 °C 0 mm/h 29 % 1,7 m/s 4,4 m/s 1012 hPa
10:00 4,8 °C 0 mm/h 24 % 1,3 m/s 3,9 m/s 1013 hPa
11:00 6,3 °C 0 mm/h 45 % 1,4 m/s 3,7 m/s 1013 hPa
12:00 7,4 °C 0 mm/h 68 % 1,6 m/s 4,2 m/s 1013 hPa
13:00 8,1 °C 0 mm/h 76 % 1,6 m/s 4,4 m/s 1012 hPa
14:00 8,3 °C 0 mm/h 63 % 1,8 m/s 4,6 m/s 1012 hPa
15:00 7,9 °C 0 mm/h 73 % 1,1 m/s 4,5 m/s 1012 hPa
16:00 6,7 °C 0 mm/h 69 % 1,3 m/s 2,7 m/s 1013 hPa
17:00 4,8 °C 0 mm/h 23 % 1,5 m/s 2,8 m/s 1013 hPa
18:00 3,4 °C 0 mm/h 20 % 1,6 m/s 2,8 m/s 1013 hPa
19:00 2,3 °C 0 mm/h 48 % 1,7 m/s 2,9 m/s 1014 hPa
20:00 1,6 °C 0 mm/h 60 % 1,6 m/s 2,9 m/s 1014 hPa
21:00 1,2 °C 0 mm/h 61 % 1,6 m/s 2,7 m/s 1014 hPa
22:00 0,9 °C 0 mm/h 53 % 1,6 m/s 2,7 m/s 1014 hPa
23:00 0,7 °C 0 mm/h 57 % 1,6 m/s 2,6 m/s 1014 hPa

Forecast data of ČHMÚ (Czech hydrometeorological institute) based on Aladin numerical model for Konstantinovy Lázně area. The data is updated daily at 6:00.